Location: Barcelona
(41.3829°N, 2.1774°E)
Time: 22:55:27
(UTC+00:00)

ISS - Pass Details

Date: 03 May 2024
Orbit: 410 x 414 km, 51.6° (Epoch: 19 May)

Event Time Altitude Azimuth Distance (km) Brightness Sun altitude
Exits shadow 02:33:49 10° 317° (NW) 1,515 -0.9 -21.2°
Reaches altitude 10° 02:33:57 10° 319° (NW) 1,482 -0.9 -21.2°
Maximum altitude 02:35:53 14° 355° (N) 1,241 -0.9 -20.9°
Drops below altitude 10° 02:37:48 10° 30° (NNE) 1,480 0.1 -20.7°
Sets 02:40:37 0° 56° (ENE) 2,341 1.5 -20.3°
